TELKOM 2

Last updated on Nov. 15, 2019, 4:20 a.m. UTC

1 28902U 05046A   19318.49365920 -.00000124  00000-0  00000+0 0  9993
2 28902   0.0113 266.5299 0001195 211.6046 269.8923  1.00271480 51113
UTC
Height (km)
Latitude
Longitude
Inclination
Orbital Period
UTC large
Height (km)
Speed (km/s)
/
Latitude / Longitude
Inclination (degrees)
Orbital Period (minutes)
Azimuth
Elevation
Range (km)
Doppler Factor
iOS Compass Heading
iOS Angle

Next 30 passes for location: Hong Kong

Rise time Rise Azimuth (degrees) Set time Set Azimuth (degrees) Duration Max altitude (degrees)

No matching passes for this satellites